EW3511 Weather Reports


Display with metric or nautical units.
time (UTC)temp
F
wind
direction
speed
MPH
gust
MPH
rain 1hr
in
rain 24hr
in
rain mn
in
humidity
%
barometer
mb
20260905114719 62 156 1.0 5.0 0.00 0.23 0.22 95 1023.1
20260905113600 62 207 3.0 7.0 0.01 0.23 0.22 96 1023.0
20260905112620 62 198 2.0 6.0 0.01 0.23 0.22 96 1023.1
20260905111620 61 171 2.0 7.0 0.01 0.23 0.22 97 1023.1
20260905110615 61 210 2.0 5.0 0.01 0.23 0.22 96 1023.2
20260905105601 60 193 3.0 7.0 0.01 0.23 0.22 95 1022.9
20260905104602 60 144 2.0 5.0 0.02 0.23 0.22 97 1023.1
20260905103604 60 261 2.0 5.0 0.05 0.22 0.21 98 1023.1
20260905102606 59 183 2.0 6.0 0.07 0.22 0.21 98 1023.1
20260905101603 59 142 1.0 3.0 0.12 0.22 0.21 99 1023.0
20260905100604 58 159 1.0 5.0 0.15 0.22 0.21 99 1023.0
20260905095625 59 147 1.0 3.0 0.15 0.22 0.21 99 1023.1
20260905094624 58 144 1.0 3.0 0.14 0.21 0.20 99 1023.1
20260905093605 59 177 3.0 7.0 0.10 0.17 0.16 99 1023.2
20260905092607 59 170 2.0 6.0 0.08 0.15 0.14 98 1023.0
20260905091618 60 180 1.0 5.0 0.03 0.10 0.09 94 1022.8
20260905090606 60 183 3.0 5.0 0.00 0.07 0.06 93 1022.9
20260905085607 61 143 1.0 2.0 0.00 0.07 0.06 92 1022.9
20260905084607 61 161 4.0 6.0 0.00 0.07 0.06 91 1022.6
20260905083647 60 167 3.0 7.0 0.00 0.07 0.06 91 1022.7
20260905082608 60 168 1.0 3.0 0.00 0.07 0.06 95 1022.7
20260905081648 60 93 0.0 2.0 0.00 0.07 0.06 94 1022.6
20260905080608 59 117 2.0 3.0 0.00 0.07 0.06 94 1022.6
20260905075609 59 125 1.0 2.0 0.00 0.07 0.06 95 1022.5
20260905074537 59 111 2.0 3.0 0.00 0.07 0.06 94 1022.4
20260905073558 59 153 3.0 5.0 0.00 0.07 0.06 94 1022.2
20260905072559 58 142 2.0 5.0 0.01 0.07 0.06 94 1022.3
20260905071539 58 105 0.0 2.0 0.01 0.07 0.06 97 1022.2
20260905070539 58 139 0.0 3.0 0.01 0.07 0.06 98 1022.2
20260905065540 57 173 3.0 6.0 0.03 0.07 0.06 98 1022.0
20260905064600 57 164 4.0 7.0 0.03 0.07 0.06 98 1021.7
20260905063541 57 170 7.0 10.0 0.03 0.07 0.06 98 1021.7
20260905062542 58 178 5.0 8.0 0.02 0.06 0.05 96 1022.2
20260905061542 58 173 3.0 7.0 0.02 0.06 0.05 96 1022.1
20260905060543 58 152 3.0 6.0 0.03 0.06 0.05 95 1022.0
20260905055542 58 152 2.0 5.0 0.02 0.04 0.03 95 1022.1
20260905054543 58 137 2.0 5.0 0.03 0.04 0.03 95 1022.1
20260905053544 58 157 3.0 6.0 0.03 0.04 0.03 95 1022.1
20260905052543 58 83 0.0 2.0 0.03 0.04 0.03 95 1021.8
20260905051604 58 52 2.0 8.0 0.03 0.04 0.03 93 1021.6
20260905050544 59 42 4.0 10.0 0.02 0.03 0.02 88 1021.8
20260905045605 63 10 8.0 20.0 0.01 0.02 0.01 75 1021.1
20260905044545 64 29 4.0 9.0 0.00 0.01 0.00 68 1020.4
20260905043545 65 44 5.0 9.0 0.00 0.01 0.00 68 1020.4
20260905042546 65 22 3.0 9.0 0.00 0.01 0.00 70 1020.1
20260905041546 65 32 2.0 8.0 0.00 0.01 0.00 74 1019.7
20260905040547 66 26 3.0 8.0 0.00 0.01 0.00 76 1019.3
20260905035547 66 27 6.0 10.0 0.00 0.01 0.00 76 1018.9
20260905034548 67 29 7.0 15.0 0.00 0.01 0.00 76 1018.5
20260905033548 67 31 7.0 18.0 0.00 0.01 0.00 76 1018.5
20260905032548 69 16 7.0 15.0 0.00 0.01 0.00 73 1018.0
20260905031548 70 48 2.0 5.0 0.00 0.01 0.00 73 1017.7
20260905030549 70 93 1.0 2.0 0.00 0.01 0.00 74 1017.5
20260905025550 70 129 0.0 1.0 0.00 0.01 0.00 74 1017.6
20260905024550 70 144 1.0 2.0 0.00 0.01 0.00 74 1017.5
20260905023610 71 189 2.0 3.0 0.00 0.01 0.00 69 1017.4
20260905022551 71 109 0.0 1.0 0.00 0.01 0.00 68 1017.1
20260905021611 72 308 1.0 5.0 0.00 0.01 0.00 66 1017.2
20260905020552 72 211 2.0 5.0 0.00 0.01 0.00 65 1017.1
20260905015552 71 315 2.0 7.0 0.00 0.01 0.00 67 1017.0
20260905014553 71 347 3.0 6.0 0.00 0.01 0.00 67 1016.9
20260905013553 72 74 1.0 3.0 0.00 0.01 0.00 65 1016.9
20260905012553 73 64 1.0 3.0 0.00 0.01 0.00 64 1017.0
20260905011554 73 58 3.0 6.0 0.00 0.01 0.00 62 1017.1
20260905010554 74 289 4.0 9.0 0.00 0.01 0.00 60 1016.9
20260905005555 75 14 4.0 10.0 0.00 0.01 0.00 59 1016.9
20260905004555 75 208 3.0 7.0 0.00 0.01 0.00 58 1016.7
20260905003555 75 244 2.0 9.0 0.00 0.01 0.00 58 1016.7
20260905002557 75 241 4.0 8.0 0.00 0.01 0.00 58 1016.6
20260905001556 76 215 4.0 8.0 0.00 0.01 0.00 57 1016.5
20260905000557 76 256 4.0 9.0 0.00 0.01 0.00 57 1016.4
20260904235557 76 249 5.0 10.0 0.00 0.01 0.00 56 1016.4
20260904234558 76 244 4.0 9.0 0.00 0.01 0.00 56 1016.5
20260904233558 76 260 3.0 10.0 0.00 0.01 0.00 55 1016.5
20260904232558 77 234 4.0 9.0 0.00 0.01 0.00 54 1016.4
20260904231559 77 232 3.0 8.0 0.00 0.01 0.00 54 1016.4
20260904230600 77 224 4.0 9.0 0.00 0.01 0.00 53 1016.3
20260904225600 77 250 5.0 13.0 0.00 0.01 0.00 52 1016.3
20260904224640 77 264 4.0 11.0 0.00 0.01 0.00 52 1016.3
20260904223601 77 223 4.0 9.0 0.00 0.01 0.00 52 1016.3
20260904222601 77 232 5.0 9.0 0.00 0.01 0.00 51 1016.0
20260904221601 77 259 4.0 10.0 0.00 0.01 0.00 50 1016.1
20260904220602 77 220 3.0 9.0 0.00 0.01 0.00 50 1016.1
20260904215622 78 259 3.0 8.0 0.00 0.01 0.01 50 1016.0
20260904214603 78 259 4.0 8.0 0.00 0.01 0.01 49 1015.9
20260904213603 77 235 3.0 8.0 0.00 0.01 0.01 50 1016.0
20260904212603 78 249 4.0 8.0 0.00 0.01 0.01 49 1015.8
20260904211604 78 280 4.0 9.0 0.00 0.01 0.01 49 1015.9
20260904210604 78 266 3.0 9.0 0.00 0.01 0.01 49 1015.7
20260904205604 78 251 5.0 13.0 0.00 0.01 0.01 48 1015.6
20260904204605 78 238 4.0 10.0 0.00 0.01 0.01 48 1015.6
20260904203538 78 252 4.0 10.0 0.00 0.01 0.01 48 1015.7
20260904202538 78 265 6.0 11.0 0.00 0.01 0.01 48 1015.6
20260904201538 78 257 6.0 13.0 0.00 0.01 0.01 47 1015.6
20260904200539 78 251 4.0 9.0 0.00 0.01 0.01 48 1015.5
20260904195539 78 244 3.0 8.0 0.00 0.01 0.01 48 1015.5
20260904194540 78 203 3.0 8.0 0.00 0.01 0.01 48 1015.5
20260904193541 78 247 3.0 8.0 0.00 0.01 0.01 48 1015.5
20260904192621 78 250 4.0 7.0 0.00 0.01 0.01 48 1015.5
20260904191541 78 230 2.0 6.0 0.00 0.01 0.01 48 1015.4
20260904190541 78 229 2.0 7.0 0.00 0.01 0.01 48 1015.4
20260904185542 78 209 2.0 6.0 0.00 0.01 0.01 48 1015.2
20260904184542 78 204 2.0 6.0 0.00 0.01 0.01 47 1015.3
20260904183542 78 233 3.0 9.0 0.00 0.01 0.01 46 1015.1
20260904182543 79 213 3.0 7.0 0.00 0.01 0.01 46 1015.0
20260904181544 80 187 2.0 5.0 0.00 0.01 0.01 45 1014.8
20260904180603 80 237 2.0 6.0 0.00 0.01 0.01 44 1014.8
20260904175604 81 206 2.0 5.0 0.00 0.01 0.01 44 1014.6
20260904174544 82 114 1.0 3.0 0.00 0.01 0.01 43 1014.5
20260904173545 82 237 3.0 7.0 0.00 0.01 0.01 42 1014.3
20260904172545 83 250 3.0 9.0 0.00 0.01 0.01 40 1014.3
20260904171546 85 225 2.0 5.0 0.00 0.01 0.01 39 1014.4
20260904170547 85 265 4.0 8.0 0.00 0.01 0.01 38 1014.4
20260904165547 86 278 3.0 7.0 0.00 0.01 0.01 37 1014.4
20260904164547 87 230 3.0 7.0 0.00 0.01 0.01 36 1014.3
20260904163548 87 275 3.0 9.0 0.00 0.01 0.01 36 1014.3
20260904162547 87 298 6.0 22.0 0.00 0.01 0.01 36 1014.3
20260904161548 87 319 4.0 10.0 0.00 0.01 0.01 36 1014.4
20260904160549 87 303 5.0 13.0 0.00 0.01 0.01 36 1014.4
20260904155550 88 292 6.0 13.0 0.01 0.01 0.01 35 1014.4
20260904154609 89 317 4.0 9.0 0.01 0.01 0.01 34 1014.4
20260904153551 89 287 6.0 13.0 0.01 0.01 0.01 33 1014.4
20260904152551 90 244 4.0 9.0 0.01 0.01 0.01 32 1014.5
20260904151550 89 266 6.0 16.0 0.01 0.01 0.01 32 1014.5
20260904150551 89 296 4.0 21.0 0.01 0.01 0.01 35 1014.7
20260904145551 90 220 5.0 14.0 0.00 0.00 0.00 31 1014.8
20260904144612 91 211 3.0 10.0 0.00 0.00 0.00 33 1014.8
20260904143553 90 233 3.0 13.0 0.00 0.00 0.00 35 1014.9
20260904142553 90 177 3.0 7.0 0.00 0.00 0.00 37 1015.0
20260904141553 90 169 3.0 11.0 0.00 0.00 0.00 36 1015.1
20260904140554 91 210 3.0 7.0 0.00 0.00 0.00 36 1015.1
20260904135554 89 256 4.0 14.0 0.00 0.00 0.00 36 1015.2
20260904134554 90 206 4.0 10.0 0.00 0.00 0.00 36 1015.4
20260904133615 90 164 3.0 8.0 0.00 0.00 0.00 36 1015.5
20260904132555 89 202 3.0 8.0 0.00 0.00 0.00 36 1015.7
20260904131555 90 225 3.0 7.0 0.00 0.00 0.00 36 1015.9
20260904130556 89 248 3.0 10.0 0.00 0.00 0.00 37 1016.1
20260904125557 89 173 2.0 8.0 0.00 0.00 0.00 38 1016.3
20260904124557 88 179 3.0 8.0 0.00 0.00 0.00 40 1016.4
20260904123558 88 207 3.0 10.0 0.00 0.00 0.00 39 1016.6
20260904122558 88 178 2.0 7.0 0.00 0.00 0.00 40 1016.8
20260904121632 87 164 2.0 8.0 0.00 0.00 0.00 41 1016.9
20260904120558 88 104 2.0 7.0 0.00 0.00 0.00 40 1017.1
20260904115600 86 208 4.0 9.0 0.00 0.00 0.00 42 1017.3